Starlink 5248

operational
NORAD ID: 54174 Int'l Des: 2022-141 Owner: SPXS Country: US Constellation: starlink
LEOCIRCULAR

Über Starlink 5248

Beschreibung wird geladen...

Live-Position

3D-Globus wird geladen...

Nächste Überflüge

Höhenverlauf

Altitude vs Time

uPlot chart will show altitude changes over time

Zweizeiliger Elementsatz

1 54174U 22141T 25351.29452860 -.00000077 00000-0 13268-4 0 9992
2 54174 53.2190 318.7497 0001485 92.2465 267.8697 15.08839594174197
Epoch: 17. Dez. 2025 • Age: 13 hours

Aktueller Status

Höhe 540.0 km
Geschwindigkeit 7.60 km/s
Subsatellitenpunkt 23.14°N, 84.23°E
Startdatum 28. Okt. 2022
Alter 3.1 years
Typ internet

Technische Details

Klassifizierung Payload
Masse 305.00 kg
Trockenmasse 290.00 kg
Gesamtmasse 305.00 kg
Länge 0.20 m
Durchmesser 2.80 m
Spannweite 9.00 m
Form Box + pan
Hersteller SPXS
Bus-Typ Starlink
Phasenstatus In Orbit
Besitzer/Staat SPXS/US

Große Konstellationen

Loading constellations...